Temp
19 19 20 21 21 22 21 21 22 25 23 21 22 23 23 22 23 22 22 19 18 20 19 18 19 21 19 18 18 18 20 21
15 15 16 17 18 17 17 18 18 21 23 21 22 23 23 21 22 22 22 21 18 19 19 18 18 18 18 17 17 17 18 19
12 11 12 14 15 16 16 16 17 19 24 23 22 23 23 22 21 21 21 21 19 18 18 19 17 17 17 17 17 17 18 18
9 9 8 9 10 11 11 13 16 18 19 23 23 24 24 23 23 22 21 20 19 18 17 20 18 17 18 17 16 17 17 16
7 6 6 6 7 7 7 9 12 15 14 15 23 23 25 24 24 23 23 21 21 19 17 18 18 17 19 18 17 17 17 17
6 4 3 4 5 5 5 7 9 11 11 12 18 21 25 24 24 23 22 22 21 21 18 19 19 20 19 20 17 16 17 18
5 3 2 2 3 3 4 5 7 9 10 10 14 19 20 20 20 21 20 19 19 19 20 20 19 20 19 18 18 16 16 17
4 3 1 1 2 3 4 5 5 6 8 8 9 12 15 15 14 13 18 18 17 17 18 19 18 19 18 18 17 16 16 17
2 2 -0 0 0 2 3 4 4 5 7 7 7 9 10 11 13 14 13 14 16 17 17 17 17 17 17 17 17 16 16 16
1 1 -1 -0 -0 0 1 3 3 4 4 5 6 6 7 8 9 9 11 11 13 14 16 16 16 16 16 16 16 17 17 17
1 -0 -1 -1 -1 -1 0 2 3 3 3 4 4 4 5 5 6 6 7 7 9 10 13 15 16 16 16 15 16 16 17 16
0 -0 -1 -1 -1 -1 -1 0 2 3 3 3 3 3 4 4 3 3 4 4 5 7 9 13 15 16 15 15 15 16 16 16
-0 -1 -1 -2 -1 -1 -1 -0 1 2 2 2 1 2 2 2 2 2 2 2 3 3 4 6 7 10 11 12 14 15 15 15
-0 -1 -1 -2 -1 -1 -1 -1 -0 0 2 3 2 2 1 1 2 1 1 1 1 1 3 2 2 3 6 8 9 11 14 15
0 -0 -1 -2 -2 -2 -1 -1 -1 -1 -0 1 2 2 2 1 1 1 1 1 0 0 0 1 0 0 2 3 6 9 10 12
1 -0 -0 -1 -1 -1 -1 -1 -1 -1 -1 -0 1 2 1 1 1 0 0 -0 -1 -1 -0 -1 -1 -1 -1 1 3 5 6 7
-0 -1 -2 -1 -1 -2 -1 -1 -1 -2 -1 -1 0 1 1 1 1 1 0 -0 -1 -1 -1 -1 -2 -2 -2 1 1 1 1 1
-1 -2 -2 -2 -1 -1 -2 -1 -2 -2 -2 -2 -1 -1 -0 -0 -0 -0 -0 -0 -1 -1 -2 -1 -1 -3 -3 -1 -1 -1 -1 -1
-0 -2 -3 -1 -1 -1 -1 -2 -2 -2 -3 -3 -2 -1 -1 -1 -2 -1 -1 -2 -2 -2 -2 -3 -2 -3 -4 -3 -1 -2 -2 -2
Height
750 750 744 738 736 731 728 725 721 719 721 728 731 731 732 736 739 744 748 751 755 759 764 767 771 774 778 781 785 788 790 791
766 759 753 745 740 737 733 727 721 717 712 718 722 721 723 727 731 735 740 746 747 752 756 761 764 767 771 776 781 784 787 788
773 768 760 752 744 738 734 729 722 713 709 708 714 715 717 718 723 724 726 732 737 742 748 755 758 763 766 770 775 780 782 784
778 772 766 759 751 745 740 733 723 712 705 699 704 705 710 711 713 718 722 728 734 735 739 746 752 756 759 763 769 774 777 778
782 776 768 762 754 749 742 733 724 713 703 694 688 694 695 699 706 713 720 727 732 734 737 740 745 749 753 756 761 766 772 774
785 780 773 763 755 747 739 731 722 714 702 696 688 687 688 694 699 703 709 716 727 734 733 738 738 741 744 749 752 759 762 766
787 783 775 764 755 746 737 728 720 713 702 696 687 688 690 690 702 693 701 709 713 728 730 734 737 735 739 743 747 752 755 758
789 782 774 766 756 747 737 728 721 714 704 698 695 692 691 694 693 670 677 711 711 723 725 728 733 730 735 739 744 745 748 750
793 786 778 769 759 751 739 730 724 715 706 703 700 697 698 699 704 713 715 716 714 721 720 721 728 726 731 735 737 741 743 743
797 789 781 769 764 754 743 735 727 717 708 705 706 706 710 708 713 722 708 723 720 718 720 718 723 720 728 729 732 733 736 737
801 794 784 778 770 760 748 738 731 724 715 706 708 713 719 718 722 721 725 725 722 718 718 719 715 718 724 721 726 728 728 729
806 800 792 784 766 765 752 742 733 730 723 721 721 728 724 737 726 731 733 723 715 716 718 717 711 718 720 713 719 722 722 723
811 805 798 785 778 762 755 748 742 737 732 728 730 734 738 738 730 721 720 723 725 725 721 714 712 715 709 707 713 715 717 718
812 805 798 791 784 775 763 753 750 747 746 745 745 741 736 729 727 729 730 735 731 726 714 712 716 716 708 710 713 711 712 713
814 808 803 797 788 782 776 770 762 756 751 747 743 744 731 731 740 735 735 741 733 723 724 724 725 724 719 718 714 711 710 710
818 814 809 800 792 785 779 774 770 765 757 753 748 747 746 742 747 753 747 739 743 738 739 735 733 729 728 720 717 715 712 709
827 824 818 811 804 796 788 782 773 773 763 767 764 758 760 760 768 762 759 759 757 753 747 745 743 736 740 727 721 719 716 712
832 829 824 818 810 804 798 794 790 785 786 779 775 776 776 777 775 769 767 767 765 761 758 755 754 744 744 730 732 725 720 719
834 833 830 824 819 815 812 806 800 796 794 792 789 790 787 785 782 775 775 774 770 769 767 765 760 755 747 742 737 732 728 724
Wind_Speed
32 34 34 27 26 28 24 28 31 27 31 35 33 31 30 28 28 27 26 28 33 27 24 25 26 22 22 22 22 23 17 17
33 35 34 34 26 25 28 27 35 33 31 32 34 32 30 30 30 29 28 27 32 35 28 25 26 25 25 24 25 22 19 17
27 30 33 33 31 25 26 28 32 36 28 32 36 32 33 32 32 32 34 32 31 34 32 26 26 25 23 24 27 20 21 20
23 27 29 31 28 27 30 31 29 35 37 28 36 32 31 31 31 30 33 32 31 30 33 28 26 27 25 27 27 24 19 20
20 24 27 28 27 25 25 28 25 26 25 31 37 35 28 31 28 29 28 29 29 26 27 28 26 26 26 24 28 27 22 17
18 23 28 27 25 25 24 24 21 21 20 23 26 37 29 29 30 28 26 26 26 25 26 27 29 28 27 24 29 30 29 22
19 26 28 28 27 27 24 22 19 18 15 22 12 28 28 13 8 23 19 16 22 21 21 25 26 26 24 28 25 30 29 28
19 21 26 29 29 28 24 21 19 17 13 24 24 14 6 8 7 29 11 12 16 18 23 25 23 24 24 25 27 29 34 29
20 23 27 28 30 27 26 21 20 19 17 24 28 27 24 17 10 13 6 9 5 10 16 16 27 25 27 28 28 31 29 31
21 28 29 26 29 28 26 22 21 20 23 26 30 29 25 25 19 10 9 7 7 5 6 14 17 21 29 31 29 29 31 29
20 24 29 29 30 26 26 24 23 21 25 30 30 29 25 24 21 20 15 12 9 10 9 12 13 14 21 24 28 29 30 27
16 22 27 28 29 26 28 27 26 26 30 28 30 26 26 18 22 19 17 19 20 15 13 9 7 13 14 14 25 29 28 27
14 21 24 28 27 33 32 32 33 29 31 33 31 26 24 24 28 31 30 25 23 22 20 20 20 14 11 9 15 26 29 28
14 20 23 27 29 29 33 36 33 32 28 28 28 28 29 33 34 34 33 29 30 30 37 36 33 29 25 19 15 12 15 27
16 16 22 26 29 29 28 29 31 31 32 32 33 33 39 40 36 35 36 31 33 40 40 39 35 36 31 26 20 17 17 15
18 18 23 29 31 33 33 34 34 34 36 36 37 37 36 39 36 33 36 38 35 35 31 37 38 40 37 32 25 21 19 18
16 18 24 26 29 31 35 35 39 36 39 35 34 36 35 34 27 29 30 30 30 30 33 31 38 39 37 31 27 26 22 25
15 17 22 24 27 29 31 32 33 33 30 34 34 31 29 27 26 28 28 27 27 30 31 30 29 40 42 37 30 27 29 28
14 17 20 21 23 25 25 28 31 33 32 31 31 28 28 27 27 29 27 27 27 27 29 29 28 35 42 38 28 27 29 31
Wind_Direction
338 328 320 314 298 300 302 292 290 239 212 218 220 216 203 208 209 211 209 208 208 207 210 209 207 213 208 210 208 212 223 228
328 323 320 316 311 308 308 299 295 294 209 215 217 211 202 202 210 207 207 209 208 205 206 206 208 207 208 211 208 213 217 218
325 325 320 317 322 303 307 299 294 290 246 212 222 211 207 202 206 204 203 205 202 202 202 207 208 208 205 207 207 213 218 210
328 325 323 319 319 319 309 299 292 284 282 237 220 215 210 205 204 205 203 205 205 202 203 205 206 203 208 208 205 211 211 204
332 332 327 322 320 314 306 305 298 295 309 303 209 214 206 207 204 204 207 205 207 205 205 207 207 208 218 204 205 209 208 205
341 339 335 328 328 323 320 312 307 308 331 324 252 222 215 206 201 197 200 197 208 212 203 212 212 213 208 212 201 207 208 209
346 348 344 337 340 337 329 334 330 330 346 350 323 233 234 213 213 194 171 176 188 215 218 219 221 219 213 211 209 206 205 213
353 356 348 343 340 344 339 347 341 349 19 22 26 35 211 223 328 332 118 183 192 215 225 228 230 222 218 217 217 211 211 211
356 360 350 350 344 342 348 356 347 360 35 42 37 36 45 56 105 206 346 353 52 221 218 226 233 227 228 221 215 220 220 216
356 357 355 349 347 346 351 2 5 14 32 47 48 41 38 47 43 25 52 326 328 292 262 230 235 236 231 226 229 223 226 224
354 354 355 350 351 350 1 8 20 27 39 45 46 44 42 45 46 29 17 6 358 348 319 281 236 233 245 243 241 241 232 227
351 351 356 354 356 359 12 15 17 35 44 48 51 49 54 49 53 42 26 27 27 21 8 347 276 248 251 258 247 242 239 228
355 354 359 1 360 6 13 17 23 28 41 46 45 47 50 51 46 46 38 33 36 37 38 37 25 11 7 6 269 239 238 235
0 3 5 3 6 13 12 16 21 25 37 51 52 48 45 43 40 39 42 36 38 38 41 37 26 16 8 354 325 302 261 243
8 8 5 3 9 11 18 24 23 23 26 32 39 37 40 43 40 39 38 35 32 39 37 36 30 21 17 2 344 322 303 291
11 8 5 8 11 12 18 22 25 26 31 27 32 34 34 37 32 32 37 33 31 38 34 35 32 25 18 16 10 5 359 343
13 10 11 11 14 13 15 18 24 24 31 27 31 33 32 35 30 35 37 36 31 32 34 34 28 28 18 33 27 25 28 23
17 15 11 12 16 19 20 22 25 28 28 29 31 32 34 33 32 36 35 31 32 33 32 30 25 26 17 31 29 31 30 27
18 21 16 18 21 26 24 25 27 30 30 29 30 31 33 31 31 33 31 29 30 30 29 27 26 19 18 24 23 27 30 30